Vertical_Velocity
0 1 -11 1 3 3 -0 0 -11 -10 -15 0 -7 -1 2 3 -6 -7 -8 -1 1 -3 6 -4 -5 3 -1 4 -12 13 1 8 1 4 3 -1 0 5 4 130 1 10 33 4
19 -29 1 -8 -4 -7 3 -4 -7 -19 -7 7 -8 -23 -8 -13 -10 2 8 2 0 3 -1 7 8 3 -2 7 -8 10 8 2 2 4 7 -3 -2 6 1 4 6 7 7 7
-5 3 19 2 12 -10 12 -3 -10 -16 -3 4 -6 -10 -2 13 16 20 27 22 35 24 18 18 17 14 13 8 -6 8 12 4 -1 3 3 -0 -5 -4 6 5 16 43 3 18
-9 6 -4 4 5 -3 -3 0 -4 -6 -6 -20 26 -33 -10 -5 7 44 -1 -5 -11 -16 -28 -34 -19 19 13 7 -5 -0 6 7 5 -2 -0 5 2 -2 7 4 6 7 -2 1
21 10 9 5 -4 5 -2 -0 -5 -2 -8 -3 9 -4 57 -35 -27 -5 2 -4 -1 -5 -13 -8 -7 -22 -25 23 10 10 6 12 3 -1 1 -0 -9 8 -0 3 1 7 2 25
-10 14 -19 -4 5 4 -5 -2 -4 -9 5 -19 28 23 -6 10 -5 -5 -0 2 -1 1 -10 -6 -8 -2 -0 -17 -52 -39 13 24 15 -0 3 1 -1 -2 4 -1 4 6 0 -0
6 20 24 -16 -21 22 -5 4 -18 -24 2 20 23 17 -19 -0 -15 3 -2 -1 1 -2 2 3 0 8 4 7 -23 -16 -26 -30 -5 10 7 5 6 -3 -0 5 1 3 5 0
-17 -49 40 46 28 -28 7 2 7 -20 -1 -5 30 31 8 -2 5 -1 10 -1 2 -1 -3 -5 -2 7 7 1 -21 13 -8 4 4 -21 -15 -2 -0 -7 -4 -0 1 3 -1 5
-29 -31 11 21 3 8 14 -11 4 -15 8 -1 20 -1 6 18 5 10 11 7 -1 3 6 4 2 6 6 -6 -13 4 1 -16 -5 10 -4 -10 11 -9 -1 2 -2 3 4 -0
4 -34 12 -5 9 10 -6 9 -2 15 5 11 23 29 3 12 8 3 22 5 2 4 -3 0 7 8 9 -11 -10 -3 12 -9 9 -2 -5 3 -2 -4 -0 -11 -6 4 6 -0
1 10 -3 4 6 3 5 13 19 -2 3 3 43 -8 -4 3 2 -2 -5 9 -4 -1 -1 -3 1 8 9 -5 -4 -3 -15 -24 -15 7 -15 -0 -1 -7 -1 -9 -3 -8 3 0
-4 4 -9 -4 18 1 -1 18 -2 -2 1 12 36 -7 -6 -2 -1 -0 -2 -1 -0 -1 -3 -3 -4 -3 6 -3 -1 -19 -9 33 116 6 23 -12 1 -4 -9 11 1 0 -5 -1
-9 -2 -14 5 3 4 19 1 -2 3 10 6 7 5 2 6 7 -1 -4 0 3 -6 -10 -8 -4 1 4 -2 -5 -20 7 13 -19 -5 21 -6 -12 -3 6 11 8 6 -1 -2
-4 5 1 -3 -3 -10 5 6 -1 4 4 -3 -4 2 -0 1 4 5 2 -5 -3 -5 -7 -10 -5 -3 1 3 -4 -5 -25 8 17 31 -4 -8 1 8 5 3 3 3 -2 -1
-11 -5 -1 -2 5 -2 50 6 -9 1 0 4 2 -1 -0 -0 0 0 1 -6 -7 -6 -8 -6 -3 -4 -3 1 -6 -5 -10 -4 -1 -41 14 18 8 2 8 -2 -3 -4 -8 2
-8 -9 1 5 2 2 -6 6 -9 -3 1 -0 -1 -1 -1 1 2 2 4 1 2 -3 -3 -2 -5 -6 -9 2 1 -5 -4 12 -18 20 5 -9 -12 -10 -6 3 18 -5 -2 -3
-10 -7 -6 -2 22 -4 5 5 -6 -1 -4 -3 -1 2 3 -0 0 -0 1 1 5 2 3 10 16 1 14 -2 3 -2 6 5 -12 -4 -10 -1 17 0 333 -13 5 -1 4 4
-3 -6 -3 -4 3 -5 -13 5 -2 1 -14 -5 0 -0 -0 2 -1 -0 -2 2 4 -3 -1 5 13 12 -1 -8 5 3 5 0 1 -3 3 7 -0 -16 -0 24 3 -1 2 5
-3 -6 -2 -2 2 3 -2 0 7 8 -10 -5 -6 3 1 1 1 -1 -2 -2 0 -0 -3 -1 21 13 21 5 1 -1 3 7 1 5 13 -7 -30 2 25 37 -6 -9 19 8
1 -1 -1 -4 1 -1 -1 -0 16 5 12 -9 -6 -2 -4 -2 -0 3 1 -2 1 0 -1 4 10 -1 12 3 5 -3 -5 2 9 -5 9 7 5 -0 -19 1 26 -3 5 10
-5 -3 -3 1 3 -2 0 -3 -3 2 -11 -2 -9 -8 -6 -5 -6 -0 1 2 2 1 -2 -2 4 8 0 24 1 -13 15 5 21 1 4 3 -20 -12 -0 -2 6 23 6 22
-4 -1 -2 -0 5 4 11 2 -8 -2 2 -4 -9 -5 -2 -10 -4 -6 -3 -0 3 4 -0 3 4 5 18 3 11 -4 -1 -20 39 -3 2 2 -10 0 -10 18 23 11 8 8
3 7 -1 0 3 -2 -3 -2 -1 -0 -0 -1 2 1 -5 -5 -4 -5 -5 -7 -3 -1 -2 -2 5 3 10 7 -1 11 -6 4 -6 -6 -7 -3 -1 12 4 15 31 13 -11 -2
7 -4 2 3 -0 -0 4 2 1 1 2 1 -1 -0 0 -1 1 -8 -7 -5 -10 -4 -2 4 -13 6 6 8 13 6 16 2 -5 -3 -9 -0 -4 -6 -3 -4 -5 -14 -6 3
-0 3 3 6 -4 4 3 4 4 2 1 0 -0 0 1 2 3 -1 -3 -4 -5 -5 -5 -6 -1 -2 -5 -3 3 8 3 -1 5 0 -2 35 4 6 -0 9 -2 2 3 5
-6 -1 6 6 8 -1 5 2 3 2 -1 2 -2 -0 4 2 1 -0 1 -2 -4 -6 -8 -5 -5 -3 1 -2 2 2 13 4 5 11 11 -1 -4 -4 -1 2 6 1 1 2
Height
5685 5679 5673 5670 5666 5661 5656 5651 5647 5644 5644 5639 5640 5647 5651 5657 5660 5670 5677 5683 5690 5696 5705 5709 5713 5717 5722 5726 5729 5741 5745 5751 5755 5758 5763 5767 5769 5773 5778 5771 5774 5783 5783 5789
5678 5665 5664 5658 5652 5648 5644 5638 5635 5631 5627 5621 5618 5620 5633 5641 5650 5658 5665 5672 5678 5684 5692 5700 5705 5708 5711 5717 5718 5731 5738 5742 5746 5752 5755 5759 5762 5765 5770 5774 5774 5776 5783 5784
5666 5660 5654 5647 5640 5633 5631 5623 5619 5615 5611 5608 5607 5609 5618 5630 5639 5648 5655 5662 5666 5670 5677 5686 5692 5698 5701 5705 5706 5719 5728 5733 5737 5745 5748 5751 5755 5757 5762 5768 5770 5773 5775 5779
5655 5649 5642 5636 5629 5621 5617 5613 5608 5603 5598 5595 5599 5593 5604 5615 5626 5624 5610 5618 5625 5632 5641 5654 5665 5681 5689 5694 5693 5705 5716 5724 5729 5736 5740 5742 5749 5752 5758 5764 5768 5769 5771 5772
5646 5636 5629 5622 5616 5609 5603 5598 5596 5593 5588 5584 5588 5589 5601 5592 5595 5595 5601 5609 5616 5623 5634 5645 5654 5663 5667 5676 5677 5690 5702 5714 5719 5727 5731 5735 5740 5746 5749 5754 5760 5764 5767 5769
5633 5623 5611 5609 5604 5596 5588 5583 5581 5580 5579 5576 5580 5582 5574 5579 5579 5586 5594 5600 5607 5614 5624 5634 5646 5656 5661 5663 5663 5671 5685 5701 5711 5716 5722 5728 5731 5738 5743 5746 5751 5757 5760 5765
5627 5619 5605 5586 5583 5582 5572 5568 5561 5564 5568 5566 5567 5568 5559 5565 5572 5577 5584 5591 5597 5604 5613 5622 5634 5645 5652 5658 5662 5669 5684 5690 5697 5704 5713 5720 5725 5728 5734 5741 5744 5750 5753 5761
5604 5603 5593 5582 5567 5554 5551 5553 5551 5548 5552 5551 5555 5552 5550 5554 5559 5567 5574 5580 5587 5594 5600 5610 5620 5632 5640 5646 5653 5659 5667 5681 5693 5698 5704 5711 5717 5720 5724 5732 5737 5743 5748 5753
5583 5578 5572 5557 5543 5543 5539 5539 5541 5537 5542 5544 5549 5546 5544 5545 5549 5556 5562 5569 5577 5583 5588 5597 5606 5617 5626 5633 5642 5647 5658 5663 5675 5689 5696 5701 5710 5713 5718 5724 5730 5737 5741 5747
5572 5545 5548 5532 5529 5531 5528 5531 5533 5534 5534 5539 5538 5535 5533 5537 5540 5543 5549 5558 5564 5570 5577 5585 5595 5603 5611 5619 5628 5639 5646 5660 5670 5674 5683 5691 5701 5705 5709 5715 5722 5729 5734 5740
5558 5542 5533 5522 5522 5520 5524 5524 5524 5525 5529 5532 5527 5523 5524 5525 5531 5535 5540 5546 5553 5559 5565 5571 5580 5590 5599 5608 5618 5627 5640 5652 5660 5670 5673 5681 5690 5697 5702 5706 5715 5720 5727 5732
5545 5528 5519 5519 5522 5519 5518 5520 5517 5521 5522 5519 5523 5516 5519 5520 5523 5527 5532 5537 5543 5548 5553 5556 5562 5572 5586 5597 5604 5614 5630 5630 5624 5646 5661 5669 5680 5688 5694 5698 5706 5712 5718 5723
5532 5516 5506 5510 5511 5514 5517 5513 5517 5519 5518 5512 5514 5514 5513 5515 5516 5520 5522 5526 5533 5538 5541 5545 5551 5558 5570 5583 5590 5599 5609 5616 5628 5641 5645 5656 5669 5677 5684 5688 5695 5703 5708 5714
5533 5515 5506 5505 5509 5513 5515 5509 5513 5515 5514 5511 5511 5511 5510 5512 5514 5516 5517 5520 5525 5528 5530 5533 5537 5543 5554 5568 5576 5585 5594 5604 5618 5619 5628 5640 5652 5666 5672 5677 5683 5689 5697 5703
5532 5514 5507 5507 5514 5514 5513 5507 5510 5511 5511 5510 5510 5509 5508 5509 5512 5513 5514 5515 5517 5517 5518 5520 5524 5530 5537 5551 5561 5572 5584 5593 5601 5603 5607 5626 5643 5655 5663 5665 5671 5680 5686 5695
5532 5520 5516 5518 5517 5515 5513 5510 5507 5509 5507 5508 5507 5507 5506 5507 5508 5509 5510 5511 5511 5510 5509 5510 5514 5519 5525 5537 5550 5560 5571 5578 5588 5595 5602 5615 5629 5639 5631 5651 5660 5667 5677 5683
5535 5527 5522 5520 5519 5514 5515 5511 5506 5504 5502 5503 5504 5504 5504 5503 5504 5504 5505 5506 5507 5507 5504 5502 5504 5511 5517 5527 5536 5548 5559 5569 5581 5591 5600 5608 5615 5627 5606 5632 5645 5654 5666 5673
5537 5529 5526 5523 5519 5515 5511 5510 5506 5503 5498 5497 5499 5500 5499 5500 5499 5499 5500 5501 5502 5502 5500 5496 5496 5499 5508 5513 5524 5535 5547 5559 5574 5581 5588 5594 5601 5611 5615 5622 5633 5640 5651 5660
5538 5532 5526 5522 5518 5514 5509 5508 5506 5502 5496 5494 5492 5494 5496 5496 5495 5494 5495 5496 5496 5497 5497 5496 5489 5494 5497 5507 5517 5528 5539 5547 5563 5572 5579 5582 5590 5590 5584 5604 5620 5632 5639 5649
5538 5531 5526 5518 5516 5511 5506 5502 5502 5496 5495 5488 5486 5485 5488 5490 5491 5491 5491 5491 5491 5491 5492 5491 5488 5487 5493 5499 5510 5519 5528 5536 5549 5559 5565 5573 5579 5585 5596 5602 5614 5623 5631 5636
5537 5530 5525 5518 5513 5508 5502 5495 5489 5490 5489 5484 5481 5480 5481 5483 5484 5485 5486 5486 5485 5487 5488 5488 5485 5484 5491 5488 5500 5512 5514 5528 5532 5543 5555 5562 5574 5579 5588 5596 5604 5606 5617 5625
5533 5528 5522 5518 5513 5508 5502 5496 5489 5486 5482 5478 5477 5476 5475 5476 5476 5477 5477 5479 5480 5479 5482 5483 5483 5481 5482 5489 5492 5502 5512 5521 5521 5534 5543 5551 5560 5565 5582 5583 5592 5587 5601 5607
5529 5524 5520 5516 5510 5504 5499 5493 5489 5484 5480 5476 5472 5469 5466 5466 5466 5468 5468 5470 5473 5473 5473 5477 5478 5479 5480 5483 5488 5491 5499 5508 5516 5524 5532 5540 5546 5557 5565 5566 5571 5583 5588 5596
5529 5518 5516 5511 5507 5502 5497 5492 5488 5484 5480 5475 5471 5467 5463 5460 5457 5458 5460 5461 5464 5467 5467 5468 5474 5475 5476 5478 5481 5487 5490 5499 5507 5516 5523 5531 5535 5543 5552 5558 5565 5570 5580 5585
5526 5519 5513 5508 5503 5499 5494 5490 5486 5482 5477 5473 5469 5466 5462 5458 5454 5451 5451 5453 5455 5457 5461 5463 5464 5467 5472 5474 5475 5479 5485 5493 5499 5505 5513 5515 5526 5535 5541 5550 5556 5563 5568 5573
5517 5512 5508 5503 5498 5493 5490 5485 5481 5477 5474 5470 5466 5463 5462 5457 5453 5450 5447 5445 5446 5449 5452 5455 5456 5458 5461 5466 5470 5473 5476 5484 5490 5493 5504 5509 5514 5521 5529 5536 5541 5547 5555 5561